Weather History for Macomb, IL

Change the Weather History Date:

Tuesday, April 30, 2013

  Actual Average (KBRL) Record (KBRL)
Temperature  
Mean Temperature 74 °F 59 °F  
Max Temperature 89 °F 70 °F 89 °F (2007)
Min Temperature 61 °F 48 °F 30 °F (1908)
Degree Days  
Heating Degree Days 0 7  
Month to date heating degree days 357  
Since 1 July heating degree days 5462  
Cooling Degree Days 10 1  
Month to date cooling degree days 18  
Year to date cooling degree days 20  
Growing Degree Days 24 (Base 50)    
Moisture  
Dew Point 55 °F    
Average Humidity 52    
Maximum Humidity 91    
Minimum Humidity 22    
Precipitation  
Precipitation 0.00 in 0.15 in 1.94 in (1998)
Month to date precipitation 3.76  
Year to date precipitation 9.41  
Sea Level Pressure  
Sea Level Pressure 29.82 in    
Wind  
Wind Speed 14 mph (South)    
Max Wind Speed 23 mph    
Max Gust Speed 30 mph    
Visibility 10 miles    
Events      
T = Trace of Precipitation, MM = Missing Value Source: NWS Daily Summary

Daily Weather History Graph

Daily Weather History Graph

Search for Another Location

Airport:

Trip Planner

Search our weather history database for the weather conditions in past years. The results will help you decide how hot, cold, wet, or windy it might be!

Date:

Astronomy

Apr. 30, 2013 Rise Set
Actual Time 6:02 AM CDT 7:57 PM CDT
Civil Twilight 5:33 AM CDT 8:27 PM CDT
Nautical Twilight 4:57 AM CDT 9:03 PM CDT
Astronomical Twilight 4:18 AM CDT 9:42 PM CDT
Moon 12:21 AM CDT (4/30) 10:31 AM CDT (4/30)
Length of Visible Light 14h 54m
Length of Day
13h 55m
Waning Gibbous, 70% of the Moon is Illuminated
Apr 30
Waning Gibbous
May 2
Last Quarter
May 9
New
May 17
First Quarter
May 24
Full

Hourly Weather History & Observations

Time (CDT) Temp. Heat Index Dew Point Humidity Pressure Visibility Wind Dir Wind Speed Gust Speed Precip Events Conditions
12:15 AM 70.2 °F - 59.0 °F 68% 29.73 in 10.0 mi South 15.0 mph - N/A   Clear
12:35 AM 69.8 °F - 59.0 °F 68% 29.73 in 10.0 mi South 13.8 mph 19.6 mph N/A   Clear
12:55 AM 69.8 °F - 59.0 °F 68% 29.73 in 10.0 mi South 13.8 mph - N/A   Clear
1:15 AM 69.3 °F - 59.0 °F 70% 29.73 in 10.0 mi South 13.8 mph - N/A   Clear
1:35 AM 69.3 °F - 59.2 °F 70% 29.74 in 10.0 mi South 12.7 mph - N/A   Clear
1:55 AM 69.8 °F - 59.2 °F 69% 29.74 in 10.0 mi SSW 15.0 mph - N/A   Clear
2:15 AM 70.0 °F - 59.5 °F 69% 29.74 in 10.0 mi South 15.0 mph 19.6 mph N/A   Clear
2:35 AM 70.5 °F - 59.9 °F 69% 29.74 in 10.0 mi SSW 15.0 mph 21.9 mph N/A   Clear
2:55 AM 70.2 °F - 59.9 °F 70% 29.74 in 10.0 mi South 16.1 mph - N/A   Clear
3:15 AM 69.6 °F - 59.9 °F 71% 29.74 in 10.0 mi South 15.0 mph 19.6 mph N/A   Clear
3:35 AM 69.8 °F - 60.8 °F 73% 29.75 in 10.0 mi South 15.0 mph - N/A   Clear
3:55 AM 68.5 °F - 60.1 °F 74% 29.75 in 10.0 mi South 12.7 mph - N/A   Clear
4:15 AM 68.0 °F - 60.1 °F 76% 29.76 in 10.0 mi South 13.8 mph - N/A   Clear
4:35 AM 67.3 °F - 60.1 °F 78% 29.76 in 10.0 mi South 11.5 mph - N/A   Clear
4:55 AM 66.9 °F - 60.1 °F 79% 29.77 in 10.0 mi South 11.5 mph - N/A   Clear
5:15 AM 65.8 °F - 59.9 °F 81% 29.77 in 10.0 mi South 10.4 mph - N/A   Clear
5:35 AM 64.8 °F - 59.9 °F 84% 29.78 in 10.0 mi SSE 8.1 mph - N/A   Clear
5:55 AM 63.9 °F - 59.9 °F 87% 29.79 in 10.0 mi SSE 8.1 mph - N/A   Clear
6:15 AM 62.8 °F - 59.4 °F 89% 29.80 in 10.0 mi SSE 5.8 mph - N/A   Clear
6:35 AM 61.9 °F - 59.2 °F 91% 29.81 in 10.0 mi SSE 6.9 mph - N/A   Clear
6:55 AM 62.8 °F - 60.1 °F 91% 29.82 in 10.0 mi South 5.8 mph - N/A   Clear
7:15 AM 63.9 °F - 60.8 °F 90% 29.82 in 10.0 mi South 6.9 mph - N/A   Clear
7:35 AM 65.5 °F - 61.3 °F 86% 29.83 in 10.0 mi South 5.8 mph - N/A   Clear
7:55 AM 67.5 °F - 61.7 °F 82% 29.83 in 10.0 mi South 8.1 mph - N/A   Clear
8:15 AM 69.1 °F - 61.7 °F 77% 29.83 in 10.0 mi South 10.4 mph - N/A   Clear
8:35 AM 70.7 °F - 61.2 °F 72% 29.83 in 10.0 mi SSW 10.4 mph - N/A   Clear
8:55 AM 74.1 °F - 60.3 °F 62% 29.83 in 10.0 mi SSW 12.7 mph - N/A   Clear
9:15 AM 76.3 °F - 58.5 °F 54% 29.83 in 10.0 mi SW 18.4 mph 25.3 mph N/A   Clear
9:35 AM 77.4 °F - 57.7 °F 51% 29.83 in 10.0 mi SW 16.1 mph 23.0 mph N/A   Clear
9:55 AM 78.1 °F - 56.8 °F 48% 29.83 in 10.0 mi SW 20.7 mph 26.5 mph N/A   Clear
10:15 AM 79.0 °F - 56.3 °F 46% 29.83 in 10.0 mi SW 18.4 mph - N/A   Clear
10:35 AM 79.7 °F - 55.2 °F 43% 29.83 in 10.0 mi SW 16.1 mph 27.6 mph N/A   Clear
10:55 AM 80.2 °F 80.3 °F 55.4 °F 42% 29.83 in 10.0 mi SW 16.1 mph 24.2 mph N/A   Clear
11:15 AM 81.5 °F 80.8 °F 53.6 °F 38% 29.83 in 10.0 mi SW 20.7 mph 28.8 mph N/A   Clear
11:35 AM 82.6 °F 81.7 °F 54.5 °F 38% 29.83 in 10.0 mi SW 17.3 mph 23.0 mph N/A   Clear
11:55 AM 82.6 °F - 52.5 °F 35% 29.83 in 10.0 mi SSW 19.6 mph - N/A   Clear
12:15 PM 82.6 °F 81.5 °F 53.1 °F 36% 29.83 in 10.0 mi SW 19.6 mph 27.6 mph N/A   Clear
12:35 PM 84.2 °F 82.8 °F 54.1 °F 35% 29.83 in 10.0 mi SW 15.0 mph - N/A   Clear
12:55 PM 84.7 °F - 52.9 °F 33% 29.82 in 10.0 mi SSW 13.8 mph - N/A   Clear
1:15 PM 85.1 °F - 52.0 °F 32% 29.82 in 10.0 mi SSW 20.7 mph 25.3 mph N/A   Clear
1:35 PM 85.5 °F - 50.5 °F 30% 29.82 in 10.0 mi SSW 16.1 mph 24.2 mph N/A   Clear
1:55 PM 86.9 °F - 48.0 °F 26% 29.82 in 10.0 mi SSW 21.9 mph 29.9 mph N/A   Clear
2:15 PM 87.1 °F - 49.6 °F 27% 29.82 in 10.0 mi SSW 16.1 mph - N/A   Clear
2:35 PM 87.3 °F - 49.3 °F 27% 29.82 in 10.0 mi SW 23.0 mph 26.5 mph N/A   Clear
2:55 PM 87.4 °F - 48.6 °F 26% 29.82 in 10.0 mi SSW 15.0 mph - N/A   Clear
3:15 PM 88.0 °F - 45.1 °F 22% 29.81 in 10.0 mi SSW 19.6 mph 26.5 mph N/A   Clear
3:35 PM 88.3 °F - 45.5 °F 23% 29.81 in 10.0 mi SW 17.3 mph 24.2 mph N/A   Clear
3:55 PM 88.7 °F - 47.1 °F 24% 29.82 in 10.0 mi SSW 15.0 mph 25.3 mph N/A   Clear
4:15 PM 88.7 °F - 46.2 °F 23% 29.82 in 10.0 mi SSW 16.1 mph 21.9 mph N/A   Clear
4:35 PM 88.5 °F - 45.7 °F 23% 29.82 in 10.0 mi SSW 17.3 mph 24.2 mph N/A   Clear
4:55 PM 88.9 °F - 46.0 °F 23% 29.83 in 10.0 mi SSW 16.1 mph 19.6 mph N/A   Clear
5:15 PM 88.7 °F - 46.2 °F 23% 29.83 in 10.0 mi SSW 17.3 mph 20.7 mph N/A   Clear
5:35 PM 88.0 °F - 45.9 °F 23% 29.83 in 10.0 mi South 13.8 mph 20.7 mph N/A   Clear
5:55 PM 87.6 °F - 44.8 °F 22% 29.83 in 10.0 mi SSW 13.8 mph 23.0 mph N/A   Clear
6:15 PM 86.9 °F - 45.3 °F 23% 29.84 in 10.0 mi SSW 12.7 mph - N/A   Clear
6:35 PM 86.0 °F - 46.2 °F 25% 29.84 in 10.0 mi South 12.7 mph - N/A   Clear
6:55 PM 84.7 °F - 47.8 °F 28% 29.84 in 10.0 mi South 13.8 mph - N/A   Clear
7:15 PM 83.5 °F - 47.8 °F 29% 29.84 in 10.0 mi South 9.2 mph - N/A   Clear
7:35 PM 81.1 °F - 50.0 °F 34% 29.84 in 10.0 mi South 8.1 mph - N/A   Clear
7:55 PM 79.0 °F - 50.9 °F 37% 29.85 in 10.0 mi South 9.2 mph - N/A   Clear
8:15 PM 78.1 °F - 53.1 °F 42% 29.85 in 10.0 mi SSE 11.5 mph - N/A   Clear
8:35 PM 77.4 °F - 54.9 °F 46% 29.86 in 10.0 mi SSE 10.4 mph - N/A   Clear
8:55 PM 76.3 °F - 55.6 °F 49% 29.87 in 10.0 mi SSE 10.4 mph - N/A   Clear
9:15 PM 75.4 °F - 56.5 °F 52% 29.88 in 10.0 mi SSE 12.7 mph - N/A   Clear
9:35 PM 74.8 °F - 56.5 °F 53% 29.89 in 10.0 mi SSE 11.5 mph - N/A   Clear
9:55 PM 74.3 °F - 55.9 °F 53% 29.90 in 10.0 mi South 12.7 mph - N/A   Clear
10:15 PM 73.9 °F - 55.2 °F 52% 29.90 in 10.0 mi South 13.8 mph - N/A   Clear
10:35 PM 73.6 °F - 54.9 °F 52% 29.91 in 10.0 mi South 11.5 mph - N/A   Clear
10:55 PM 72.9 °F - 54.9 °F 53% 29.92 in 10.0 mi South 11.5 mph 18.4 mph N/A   Clear
11:15 PM 72.5 °F - 55.4 °F 55% 29.92 in 10.0 mi South 12.7 mph - N/A   Clear
11:35 PM 71.8 °F - 55.4 °F 56% 29.93 in 10.0 mi South 13.8 mph - N/A   Clear
11:55 PM 71.6 °F - 55.8 °F 57% 29.93 in 10.0 mi South 15.0 mph 19.6 mph N/A   Clear